Theta_e
289 289 288 289 289 288 287 287 288 287 286 286 285 285 284 283 282 282 280 279 279 279
285 285 285 285 286 286 286 285 284 283 283 282 282 282 281 280 279 279 278 277 277 277
282 282 282 282 282 282 282 283 282 281 281 281 280 280 279 278 278 277 277 277 276 276
279 280 280 279 280 280 279 279 279 279 279 278 278 278 278 277 277 276 276 276 276 275
278 278 278 277 278 278 278 278 278 278 277 277 277 277 276 275 275 274 274 274 273 273
278 277 277 276 277 277 276 276 276 276 275 275 275 274 274 273 273 272 272 272 272 272
277 278 278 278 277 277 276 275 274 274 273 273 273 273 272 271 270 270 271 272 272 273
277 278 278 277 277 277 277 276 276 275 274 273 273 272 270 270 269 269 269 270 272 272
276 276 276 277 276 276 275 275 274 274 274 274 275 277 275 271 269 269 269 269 270 272
275 274 274 274 274 274 274 275 274 274 274 274 274 277 275 273 270 269 268 268 269 270
273 273 273 273 272 272 272 272 273 274 274 274 275 277 275 273 269 268 267 267 268 268
272 271 271 271 271 271 271 271 271 271 272 274 275 277 275 271 269 268 267 267 267 268
271 271 270 270 270 271 271 271 271 271 270 270 272 278 276 272 269 267 267 267 266 270
269 269 269 269 269 269 269 269 268 268 268 269 270 273 276 276 271 268 266 266 265 266
Wind_Speed
12 9 9 11 6 9 10 9 14 16 15 17 17 16 15 14 14 14 14 17 13 10
13 14 10 11 9 10 13 13 17 18 16 18 19 17 16 15 16 16 14 14 13 11
14 15 11 11 14 15 16 16 18 17 17 18 19 16 18 15 16 17 12 11 14 12
15 15 13 13 16 14 19 17 17 18 20 19 20 18 18 18 17 18 15 12 13 14
16 15 13 15 14 16 19 17 18 18 21 20 18 18 18 18 15 17 16 13 14 12
17 15 14 15 14 19 20 17 20 20 20 18 17 19 17 16 15 15 13 11 10 9
16 15 15 12 16 20 18 20 20 19 18 16 17 16 14 13 13 13 12 11 11 11
14 13 13 12 19 19 19 17 17 18 17 16 15 10 11 12 13 11 10 10 9 10
12 11 12 13 18 18 18 17 17 16 16 16 12 24 22 13 10 10 9 9 8 7
12 12 14 13 14 17 17 16 17 16 14 13 12 18 18 18 9 9 8 8 8 8
11 10 11 12 14 15 12 13 12 12 13 12 10 15 15 14 8 8 8 6 6 6
7 10 10 13 11 9 11 12 12 10 10 10 10 15 12 7 7 7 8 6 5 5
8 7 8 8 8 9 10 11 7 9 9 9 6 15 14 10 5 7 5 5 7 11
6 6 5 7 6 7 8 8 7 8 7 7 7 8 16 13 6 5 3 4 4 5
Wind_Direction
32 51 56 62 70 73 72 72 68 69 68 76 72 75 78 75 70 69 65 64 56 57
41 49 46 54 65 72 77 76 74 71 75 73 75 74 77 76 76 70 64 64 62 59
44 49 45 60 67 71 72 75 76 79 75 72 75 74 73 75 72 75 65 63 64 60
43 50 48 61 62 75 75 71 72 74 74 70 68 69 73 73 72 72 69 64 67 62
52 51 52 60 73 66 75 70 73 73 74 70 72 72 72 73 71 73 69 62 63 60
57 58 59 63 75 76 75 76 72 71 70 71 74 75 71 75 75 70 65 62 60 67
56 57 60 70 76 75 76 74 74 74 77 74 72 71 73 75 77 76 65 56 51 43
59 59 65 67 72 75 73 76 77 77 75 74 73 73 71 68 67 68 63 51 54 46
63 71 67 66 72 75 74 71 69 66 69 71 73 73 74 71 73 65 58 54 41 44
69 68 64 63 69 70 71 70 69 64 68 71 74 79 76 72 71 70 60 54 41 37
67 72 76 71 67 66 70 69 72 72 69 69 69 76 77 79 81 81 74 56 37 14
85 77 76 68 70 78 82 75 65 60 60 74 77 72 74 77 70 72 58 50 12 345
55 71 80 81 76 75 75 81 86 78 60 56 48 67 72 65 63 60 34 19 10 356
57 69 77 86 82 88 88 88 83 75 56 49 34 29 49 52 51 52 20 1 338 331